GFSFLT2_sfc_thetae_159.txt.gz
Theta_e
338 339 339 341 340 340 339 339 340 339 338 338 336 337 333 333 331 332 330 328 330 329 329 331 332 330 331
340 332 334 336 337 337 335 333 332 333 334 334 332 335 335 333 333 332 329 328 328 327 327 328 327 326 330
338 335 330 331 332 331 331 328 327 330 334 333 329 332 335 335 334 332 330 328 327 325 326 326 324 328 328
337 337 335 335 335 333 332 330 329 328 327 329 326 327 331 331 334 333 331 329 322 322 323 322 326 325 326
336 337 335 333 333 331 330 329 328 326 326 326 328 329 333 325 332 332 331 328 324 321 322 323 322 323 324
336 335 335 332 331 329 329 328 326 326 325 325 325 327 328 330 329 330 329 328 324 321 321 322 323 321 322
334 335 334 332 331 331 328 327 326 325 324 324 323 324 326 327 327 327 327 325 325 323 321 321 321 322 321
334 334 333 333 333 330 329 328 325 325 324 323 323 322 323 325 326 326 325 325 323 323 322 321 321 322 321
333 334 334 334 334 332 330 329 326 325 323 323 322 322 323 324 325 324 324 322 321 320 319 319 320 321 321
332 333 333 333 333 333 331 329 327 326 325 323 322 321 323 323 323 323 323 321 320 319 318 318 319 320 321
331 332 333 333 332 333 332 330 328 327 325 324 323 323 322 321 321 322 321 320 320 319 318 319 319 319 320
329 331 331 331 331 332 331 330 329 327 326 324 325 323 322 321 320 320 320 320 319 320 318 317 318 319 320
326 326 327 326 328 329 329 331 330 328 327 325 325 324 322 321 321 321 320 318 317 317 316 317 317 318 318
325 326 327 327 328 329 330 329 329 328 327 326 325 324 323 321 322 321 320 318 318 317 315 314 310 313 315
322 325 326 326 324 326 327 327 328 329 328 327 326 325 324 322 321 321 320 319 317 317 318 316 309 306 309
320 323 324 323 322 324 326 327 327 327 328 328 326 324 324 322 321 321 321 320 319 317 313 317 319 315 309

GFSFLT2_sfc_thetae_162.txt.gz
Theta_e
340 340 341 342 341 341 339 341 341 339 338 337 336 336 332 331 330 331 331 329 330 329 330 333 332 330 330
344 333 335 337 338 338 337 334 333 334 334 334 332 334 335 334 332 332 330 328 329 328 327 329 329 328 329
344 338 331 332 333 332 332 329 328 333 335 333 330 332 336 335 334 333 330 329 328 326 324 327 325 329 328
341 341 340 340 339 338 336 335 333 334 334 333 328 327 331 331 333 334 332 330 323 326 327 323 328 328 329
342 341 341 340 339 339 338 336 334 333 333 331 334 333 332 326 330 331 331 328 326 325 326 327 327 328 327
342 341 341 340 339 337 336 336 334 332 332 331 330 333 333 332 331 332 330 329 328 326 324 325 327 326 325
338 341 341 340 339 338 337 336 334 332 330 331 330 330 331 332 331 330 330 329 328 326 325 324 323 325 326
340 339 340 339 340 339 338 336 334 333 332 330 329 328 328 330 330 330 329 328 328 327 325 325 324 324 325
337 339 339 339 338 338 338 338 336 334 332 331 330 329 328 329 329 329 328 329 327 327 326 326 325 324 324
333 335 338 339 339 338 338 337 336 335 333 332 331 330 330 329 328 327 326 325 325 325 324 325 324 323 323
330 333 335 337 336 334 336 336 336 335 334 333 332 331 331 329 328 327 326 325 323 323 323 323 324 323 323
327 330 332 334 334 333 333 333 333 332 333 333 332 332 331 329 328 327 325 325 324 323 321 321 322 323 324
324 326 328 328 331 332 332 332 332 331 330 332 332 332 331 328 328 328 327 324 323 322 318 318 321 323 323
320 324 326 326 329 331 332 332 331 331 330 328 329 330 330 326 327 328 326 324 323 323 316 315 312 317 321
315 319 323 327 328 328 329 330 331 330 330 328 328 328 329 327 324 326 326 323 320 322 320 317 312 312 315
321 319 322 322 321 324 327 329 331 332 330 330 329 327 327 327 324 325 325 323 321 318 317 318 321 322 315

GFSFLT2_sfc_thetae_165.txt.gz
Theta_e
341 342 342 342 342 343 341 343 341 339 339 338 336 336 333 330 329 329 332 331 330 331 331 333 333 331 328
344 334 336 338 339 339 337 337 336 335 334 334 332 335 336 335 333 331 331 330 329 330 328 329 330 329 327
342 337 331 332 334 333 333 330 329 334 333 333 330 332 336 336 335 334 332 330 329 328 328 327 326 327 327
340 341 341 340 339 338 336 336 333 334 332 332 328 327 331 332 334 335 333 331 326 323 325 324 326 326 326
341 340 340 340 339 339 339 338 337 334 334 332 334 332 332 325 330 331 331 329 326 325 324 325 326 326 326
342 341 340 339 339 339 339 338 337 335 334 332 332 332 334 333 331 331 329 330 328 327 326 324 325 326 326
339 341 341 338 339 339 339 338 337 335 335 333 333 331 331 332 331 330 330 329 329 327 326 324 323 324 325
340 339 339 340 341 340 339 338 338 336 335 334 332 331 331 331 331 330 329 328 328 328 326 325 324 324 323
334 337 339 339 339 339 339 338 338 337 335 334 333 332 332 331 330 330 329 328 327 327 327 326 325 324 323
329 332 334 336 338 337 337 337 338 337 336 335 334 333 334 332 331 329 328 327 326 325 324 325 325 326 325
326 328 332 334 336 337 338 339 337 336 336 334 335 335 334 332 331 330 328 327 325 325 324 324 325 324 325
322 326 329 331 334 335 336 334 334 335 334 333 333 333 332 330 329 328 327 328 327 326 323 322 323 324 324
318 321 325 326 330 331 333 333 331 332 333 331 331 331 331 329 328 328 327 325 324 325 321 321 323 323 323
316 320 324 325 326 328 331 332 333 331 331 330 329 329 329 328 327 327 326 324 323 325 316 316 311 318 322
322 317 319 323 325 326 328 330 332 331 330 330 329 328 328 327 326 325 325 324 321 322 320 317 310 310 318
315 322 320 320 320 323 325 328 330 330 330 329 329 328 328 328 326 325 325 324 323 319 320 320 320 319 314

GFSFLT2_sfc_thetae_168.txt.gz
Theta_e
341 341 342 342 342 342 341 342 341 339 338 338 336 336 334 332 331 330 331 330 329 330 330 332 331 329 325
339 335 336 337 338 338 337 336 335 334 334 334 332 334 337 335 335 334 332 330 329 329 329 329 329 328 324
340 337 331 332 333 333 332 329 329 332 332 330 329 331 335 335 336 335 334 331 330 328 327 326 325 323 323
339 337 338 337 333 333 332 331 329 330 330 330 326 327 330 331 334 335 335 331 326 321 319 324 321 322 321
335 337 337 337 336 336 335 333 330 329 328 326 328 325 325 323 327 329 328 327 323 319 317 320 321 321 320
337 337 336 336 336 335 335 335 331 329 327 326 325 326 326 326 325 324 325 325 324 321 320 319 318 318 319
335 335 335 336 336 336 335 335 334 330 328 327 326 325 324 326 325 325 324 323 323 322 321 320 319 317 318
334 334 334 335 334 336 336 335 334 332 329 328 326 326 324 324 324 324 323 322 322 322 322 321 319 318 317
328 334 335 334 334 333 334 336 335 334 332 328 327 326 325 325 324 323 323 322 321 322 321 321 321 319 318
320 324 329 331 333 332 332 332 334 334 334 332 330 327 327 326 324 322 322 320 319 319 319 319 320 320 320
317 320 323 326 328 331 332 331 332 333 334 333 331 330 330 329 327 325 323 322 319 318 319 319 318 318 319
313 316 320 322 326 328 329 331 331 332 333 331 331 330 330 328 327 327 325 325 324 323 322 321 319 319 318
310 311 316 318 322 324 327 330 329 329 330 331 330 330 329 328 328 327 325 324 323 324 320 320 321 322 319
315 313 312 316 319 321 325 327 328 327 329 330 329 328 328 327 327 326 325 324 323 323 318 316 312 316 319
311 317 312 313 316 318 321 323 326 328 328 329 328 328 327 326 325 325 325 323 321 322 322 318 310 308 314
307 311 316 316 315 316 318 321 323 324 325 328 326 328 327 326 325 325 324 323 322 319 320 321 321 319 313

GFSFLT2_sfc_thetae_171.txt.gz
Theta_e
339 340 341 342 343 342 341 340 341 339 339 338 337 337 333 331 330 330 330 330 329 330 329 330 330 329 324
338 334 335 337 337 338 337 335 334 334 334 335 332 335 336 335 335 334 333 331 329 329 330 328 327 328 323
338 336 331 332 332 332 332 329 330 333 331 329 329 331 336 336 336 336 335 333 330 328 327 326 325 321 321
339 339 337 336 332 332 331 330 328 329 329 330 325 326 331 331 334 336 335 332 326 321 317 322 320 320 319
334 334 337 337 334 334 332 329 328 328 326 324 325 324 324 322 326 330 329 327 323 320 318 315 318 318 318
334 335 335 334 335 335 334 334 331 325 325 324 323 323 322 323 322 323 322 324 323 322 319 316 316 316 316
333 333 333 331 334 335 334 335 334 331 326 325 324 323 323 324 323 322 322 323 321 321 321 318 318 317 316
332 332 332 332 332 332 334 335 334 333 330 326 325 324 322 323 324 323 322 321 321 321 320 319 318 317 317
326 332 331 332 332 331 332 332 333 334 332 330 326 324 324 323 322 322 321 321 319 320 319 320 319 318 317
314 320 332 333 332 330 331 331 332 333 333 331 330 328 328 326 323 321 320 319 318 318 317 318 319 319 319
311 314 317 322 326 329 330 330 330 330 331 332 331 330 329 328 326 325 323 322 320 319 319 319 319 318 319
310 310 313 317 320 324 328 329 330 332 332 332 331 331 330 329 327 326 325 324 323 323 322 322 321 321 321
310 308 310 313 317 320 323 328 329 327 327 327 330 330 330 328 328 327 326 324 323 323 320 321 322 322 321
309 311 310 309 315 319 322 325 327 326 327 328 328 328 328 326 326 326 325 324 323 324 319 316 313 316 319
305 313 314 313 314 317 319 320 320 321 322 324 326 327 327 326 324 324 324 323 321 322 322 318 311 308 313
301 305 309 310 310 310 311 313 315 313 309 310 312 313 316 323 324 324 324 323 322 320 320 321 321 319 313

GFSFLT2_sfc_thetae_174.txt.gz
Theta_e
339 340 341 342 343 342 339 342 340 339 339 338 336 336 332 331 330 330 331 330 329 329 329 329 329 328 322
337 333 335 337 338 338 338 335 335 334 334 334 332 335 336 335 334 334 333 331 330 330 330 327 326 326 322
336 335 330 331 332 332 331 329 329 332 331 329 329 330 336 336 336 336 335 333 331 328 328 326 325 319 319
338 336 334 336 333 331 331 329 328 330 330 329 324 326 330 331 334 336 335 332 327 320 318 320 318 318 318
334 334 333 336 334 333 331 329 327 327 326 325 324 324 323 322 325 329 328 327 323 320 319 316 314 316 316
332 331 332 333 334 334 334 333 330 327 323 323 322 322 322 322 321 322 322 323 323 322 320 318 315 315 316
331 331 330 329 330 332 332 332 333 330 327 324 323 322 322 322 321 320 320 321 321 321 321 319 317 315 315
330 330 331 331 331 330 329 330 331 331 330 328 326 323 321 322 322 321 321 320 320 320 319 319 318 317 317
324 330 330 330 331 330 330 331 330 330 329 330 328 326 325 325 323 321 320 320 319 319 318 319 319 318 317
309 313 327 330 329 329 329 330 331 330 331 331 329 328 328 327 326 324 322 321 321 320 319 319 319 319 319
309 309 312 320 326 329 328 328 329 330 332 331 330 330 329 328 326 325 324 323 322 321 321 321 321 321 321
311 308 309 312 316 320 324 327 328 330 332 331 331 331 330 328 328 326 325 324 323 323 322 322 321 321 322
308 308 307 310 314 318 320 324 327 327 329 328 324 326 329 328 328 328 326 324 322 323 321 321 322 322 320
305 308 310 307 313 318 321 318 323 325 325 326 325 326 326 326 325 325 324 322 322 323 319 317 313 315 316
301 309 313 311 314 312 312 314 310 309 312 312 312 316 319 324 323 323 323 322 320 321 322 317 311 309 311
299 303 307 307 305 304 306 307 302 300 301 303 305 306 308 311 311 312 314 321 322 319 319 320 320 317 311